Home   Weather   India   Karaikudi   Past weeks
Flag for India

Past Weather in Karaikudi, Tamil Nadu, India — Yesterday and Last 2 Weeks

Currently: 73 °F. Fog. (Weather station: Tiruchchirapalli, India). See more current weather

Past Weather in Karaikudi — Graph

°F

Karaikudi Temperature Yesterday

Maximum temperature yesterday: 86 °F (at 1:00 pm)
Minimum temperature yesterday: 75 °F (at 6:30 am)
Average temperature yesterday: 80 °F

High & Low Weather Summary for the Past Weeks

 TemperatureHumidityPressure
High91 °F (Nov 23, 2:30 pm)94% (Nov 15, 6:30 am)29.98 "Hg (Nov 15, 6:30 am)
Low70 °F (Nov 18, 6:30 am)40% (Nov 20, 2:30 pm)29.71 "Hg (Nov 21, 3:30 pm)
Average80 °F76%29.85 "Hg
* Reported Nov 15 1:30 am — Nov 30 2:00 am, Karaikudi. Weather by CustomWeather, © 2022

Note: Actual official high and low records may vary slightly from our data, if they occured in-between our weather recording intervals... More about our weather records

Karaikudi Weather History for the Previous 24 Hours

Scroll right to see more
 ConditionsComfort  
Time TempWeatherWind HumidityBarometerVisibility
2:00 am
Wed, Nov 30
73 °FFog.5 mph89%29.86 "Hg1 mi
1:30 am73 °FFog.5 mph89%29.89 "Hg1 mi
12:30 am73 °FFog.5 mph89%29.89 "Hg1 mi
11:30 pm
Tue, Nov 29
75 °FFog.3 mph83%29.89 "Hg1 mi
11:00 pm75 °FFog.5 mph83%29.89 "Hg1 mi
10:30 pm75 °FFog.5 mph83%29.92 "Hg1 mi
10:00 pm75 °FFog.3 mph83%29.92 "Hg1 mi
9:30 pm75 °FFog.6 mph89%29.92 "Hg1 mi
9:00 pm77 °FFog.5 mph83%29.89 "Hg1 mi
8:30 pm77 °FFog.6 mph83%29.89 "Hg1 mi
8:00 pm79 °FFog.7 mph79%29.89 "Hg1 mi
7:30 pm79 °FFog.9 mph79%29.86 "Hg1 mi
6:30 pm81 °FFog.8 mph74%29.83 "Hg1 mi
6:00 pm81 °FBroken clouds.6 mph74%29.80 "Hg1 mi
5:30 pm82 °FBroken clouds.5 mph70%29.80 "Hg1 mi
5:00 pm84 °FBroken clouds.7 mph70%29.80 "Hg2 mi
4:30 pm84 °FBroken clouds.5 mph70%29.77 "Hg2 mi
4:00 pm84 °FBroken clouds.3 mph70%29.77 "Hg2 mi
3:30 pm86 °FBroken clouds.6 mph66%29.77 "Hg2 mi
3:00 pm86 °FBroken clouds.7 mph66%29.77 "Hg2 mi
2:30 pm86 °FBroken clouds.5 mph66%29.80 "Hg2 mi
2:00 pm86 °FBroken clouds.6 mph66%29.80 "Hg2 mi
1:30 pm86 °FBroken clouds.9 mph66%29.83 "Hg2 mi
1:00 pm86 °FBroken clouds.6 mph70%29.83 "Hg2 mi
12:30 pm84 °FBroken clouds.7 mph74%29.86 "Hg2 mi
11:30 am84 °FBroken clouds.7 mph70%29.89 "Hg1 mi
11:00 am84 °FFog.9 mph74%29.89 "Hg1 mi
10:30 am82 °FFog.6 mph79%29.89 "Hg1 mi
10:00 am82 °FFog.9 mph79%29.92 "Hg1 mi
9:30 am81 °FFog.9 mph84%29.92 "Hg1 mi
9:00 am81 °FFog.7 mph79%29.92 "Hg1 mi
8:30 am79 °FFog.7 mph84%29.92 "Hg1 mi
8:00 am77 °FFog.6 mph89%29.89 "Hg1 mi
7:30 am77 °FFog.7 mph89%29.89 "Hg1 mi
7:00 am75 °FFog.3 mph94%29.86 "Hg1 mi
6:30 am75 °FFog.5 mph94%29.86 "Hg1 mi
5:00 am77 °FFog.6 mph89%29.83 "Hg1 mi
4:30 am77 °FFog.2 mph89%29.83 "Hg1 mi
4:00 am77 °FFog.1 mph89%29.83 "Hg1 mi
3:30 am77 °FFog.2 mph89%29.83 "Hg1 mi
3:00 am77 °FFog.2 mph89%29.83 "Hg1 mi
Weather by CustomWeather, © 2022

See weather overview